When you browse on this site, cookies collect data to enhance your experience and personalize the content and advertising you see.
Visit our Privacy Policy to learn more. By continuing to use the site, you agree to this use of cookies and data.
  • In Switzerland
  • List of Countries
  • For 7 days
  • Water Temperature
  • Satellite Maps
  • Weather Map
  • Weather Widgets
  • user-avatar
    Login

    Hourly Weather Serdehivka

    Today, 18 November, Sunday

    Time Temperature Precipitation Wind Pressure Humidity
    00:00 -4°C° 0 mm 2 mps 755 mmHg 66%
    01:00 -4°C° 0 mm 2 mps 755 mmHg 67%
    02:00 -5°C° 0 mm 2 mps 755 mmHg 68%
    03:00 -5°C° 0 mm 2 mps 754 mmHg 68%
    04:00 -3°C° 0 mm 1 mps 754 mmHg 69%
    05:00 -3°C° 0 mm 1 mps 753 mmHg 69%
    06:00 -3°C° 0 mm 1 mps 753 mmHg 68%
    07:00 -3°C° 0 mm 1 mps 753 mmHg 68%
    08:00 -3°C° 0 mm 1 mps 752 mmHg 67%
    09:00 -2°C° 0 mm 1 mps 752 mmHg 63%
    10:00 -1°C° 0 mm 1 mps 752 mmHg 59%
    11:00 0°C° 0 mm 1 mps 751 mmHg 55%
    12:00 +1°C° 0 mm 1 mps 751 mmHg 54%
    13:00 +1°C° 0 mm 1 mps 750 mmHg 54%
    14:00 +2°C° 0 mm 1 mps 750 mmHg 53%
    15:00 +1°C° 0 mm 1 mps 750 mmHg 57%
    16:00 -1°C° 0 mm 0 mps 750 mmHg 62%
    17:00 -2°C° 0 mm 0 mps 749 mmHg 66%
    18:00 -2°C° 0 mm 0 mps 749 mmHg 67%
    19:00 -2°C° 0 mm 0 mps 749 mmHg 67%
    20:00 -2°C° 0 mm 1 mps 749 mmHg 68%
    21:00 -2°C° 0 mm 1 mps 749 mmHg 68%
    22:00 -2°C° 0 mm 1 mps 749 mmHg 68%
    23:00 -2°C° 0 mm 1 mps 749 mmHg 68%

    Tomorrow, 19 November, Monday

    Time Temperature Precipitation Wind Pressure Humidity
    00:00 -2°C° 0 mm 1 mps 749 mmHg 68%
    01:00 -2°C° 0 mm 1 mps 749 mmHg 68%
    02:00 -2°C° 0 mm 1 mps 749 mmHg 68%
    03:00 -2°C° 0 mm 1 mps 749 mmHg 68%
    04:00 -4°C° 0 mm 2 mps 749 mmHg 69%
    05:00 -4°C° 0 mm 2 mps 749 mmHg 69%
    06:00 -4°C° 0 mm 2 mps 749 mmHg 68%
    07:00 -3°C° 0 mm 2 mps 749 mmHg 66%
    08:00 -4°C° 0 mm 3 mps 749 mmHg 65%
    09:00 -2°C° 0 mm 3 mps 749 mmHg 60%
    10:00 -1°C° 0 mm 3 mps 749 mmHg 55%
    11:00 -1°C° 0 mm 4 mps 749 mmHg 50%
    12:00 -1°C° 0 mm 4 mps 749 mmHg 50%
    13:00 -1°C° 0 mm 5 mps 748 mmHg 50%
    14:00 0°C° 0 mm 5 mps 748 mmHg 50%
    15:00 -1°C° 0 mm 5 mps 748 mmHg 53%
    16:00 -1°C° 0 mm 5 mps 748 mmHg 57%
    17:00 -2°C° 0 mm 5 mps 748 mmHg 60%
    18:00 -2°C° 0.1 mm 5 mps 748 mmHg 63%
    19:00 -3°C° 0.1 mm 6 mps 747 mmHg 66%
    20:00 -3°C° 0.1 mm 6 mps 747 mmHg 69%
    21:00 -4°C° 1 mm 6 mps 747 mmHg 77%
    22:00 -4°C° 1 mm 6 mps 747 mmHg 84%
    23:00 -4°C° 1 mm 6 mps 747 mmHg 92%

    Day after tomorrow, 20 November, Tuesday

    Time Temperature Precipitation Wind Pressure Humidity
    00:00 -4°C° 1.1 mm 7 mps 747 mmHg 92%
    01:00 -4°C° 1.1 mm 7 mps 747 mmHg 92%
    02:00 -6°C° 1.1 mm 8 mps 746 mmHg 93%
    03:00 -6°C° 0.4 mm 7 mps 746 mmHg 92%
    04:00 -6°C° 0.4 mm 7 mps 746 mmHg 91%
    05:00 -6°C° 0.4 mm 7 mps 746 mmHg 90%
    06:00 -5°C° 0.1 mm 6 mps 747 mmHg 89%
    07:00 -4°C° 0.1 mm 6 mps 747 mmHg 89%
    08:00 -4°C° 0.1 mm 6 mps 748 mmHg 88%
    09:00 -4°C° 0 mm 6 mps 748 mmHg 87%
    10:00 -4°C° 0 mm 5 mps 748 mmHg 86%
    11:00 -2°C° 0 mm 5 mps 748 mmHg 85%
    12:00 -2°C° 0 mm 5 mps 749 mmHg 84%
    13:00 -2°C° 0 mm 4 mps 749 mmHg 83%
    14:00 -2°C° 0 mm 4 mps 749 mmHg 83%
    15:00 -2°C° 0 mm 4 mps 749 mmHg 83%
    16:00 -2°C° 0 mm 3 mps 749 mmHg 83%
    17:00 -2°C° 0 mm 3 mps 749 mmHg 84%
    18:00 -4°C° 0 mm 3 mps 749 mmHg 84%
    19:00 -4°C° 0 mm 3 mps 749 mmHg 85%
    20:00 -5°C° 0 mm 3 mps 749 mmHg 86%
    21:00 -5°C° 0 mm 3 mps 750 mmHg 86%
    22:00 -6°C° 0 mm 3 mps 750 mmHg 87%
    23:00 -6°C° 0 mm 3 mps 750 mmHg 87%

    21 November, Wednesday

    Time Temperature Precipitation Wind Pressure Humidity
    00:00 -6°C° 0 mm 3 mps 750 mmHg 88%
    01:00 -6°C° 0 mm 3 mps 750 mmHg 88%
    02:00 -7°C° 0 mm 3 mps 750 mmHg 89%
    03:00 -7°C° 0 mm 3 mps 750 mmHg 90%
    04:00 -7°C° 0 mm 3 mps 750 mmHg 91%
    05:00 -7°C° 0 mm 3 mps 750 mmHg 92%
    06:00 -7°C° 0 mm 3 mps 750 mmHg 93%
    07:00 -6°C° 0 mm 3 mps 750 mmHg 93%
    08:00 -6°C° 0 mm 3 mps 750 mmHg 94%
    09:00 -5°C° 0 mm 3 mps 750 mmHg 93%
    10:00 -5°C° 0 mm 3 mps 750 mmHg 92%
    11:00 -4°C° 0 mm 4 mps 750 mmHg 91%
    12:00 -3°C° 0 mm 4 mps 750 mmHg 90%
    13:00 -3°C° 0 mm 4 mps 750 mmHg 90%
    14:00 -3°C° 0 mm 4 mps 750 mmHg 90%
    15:00 -2°C° 0 mm 3 mps 750 mmHg 90%
    16:00 -4°C° 0 mm 3 mps 750 mmHg 90%
    17:00 -4°C° 0 mm 3 mps 750 mmHg 91%
    18:00 -4°C° 0 mm 3 mps 750 mmHg 90%
    19:00 -4°C° 0 mm 3 mps 750 mmHg 89%
    20:00 -4°C° 0 mm 3 mps 750 mmHg 89%
    21:00 -4°C° 0 mm 3 mps 750 mmHg 89%
    22:00 -4°C° 0 mm 3 mps 751 mmHg 90%
    23:00 -5°C° 0 mm 3 mps 751 mmHg 90%

    22 November, Thursday

    Time Temperature Precipitation Wind Pressure Humidity
    00:00 -5°C° 0 mm 3 mps 751 mmHg 90%
    01:00 -5°C° 0 mm 3 mps 751 mmHg 91%
    02:00 -6°C° 0 mm 3 mps 751 mmHg 91%
    03:00 -6°C° 0 mm 3 mps 751 mmHg 91%
    04:00 -6°C° 0 mm 3 mps 751 mmHg 91%
    05:00 -6°C° 0 mm 3 mps 751 mmHg 91%
    06:00 -6°C° 0 mm 3 mps 751 mmHg 92%
    07:00 -7°C° 0 mm 3 mps 751 mmHg 92%
    08:00 -7°C° 0 mm 3 mps 751 mmHg 92%
    09:00 -6°C° 0 mm 3 mps 752 mmHg 90%
    10:00 -5°C° 0 mm 3 mps 752 mmHg 88%
    11:00 -4°C° 0 mm 3 mps 752 mmHg 86%
    12:00 -4°C° 0 mm 3 mps 752 mmHg 86%
    13:00 -2°C° 0 mm 3 mps 752 mmHg 86%
    14:00 -2°C° 0 mm 3 mps 752 mmHg 86%
    15:00 -4°C° 0 mm 3 mps 752 mmHg 87%
    16:00 -5°C° 0 mm 3 mps 752 mmHg 89%
    17:00 -6°C° 0 mm 3 mps 752 mmHg 91%
    18:00 -6°C° 0 mm 3 mps 752 mmHg 92%
    19:00 -7°C° 0 mm 3 mps 753 mmHg 92%
    20:00 -7°C° 0 mm 3 mps 753 mmHg 93%
    21:00 -7°C° 0 mm 3 mps 753 mmHg 93%
    22:00 -7°C° 0 mm 3 mps 753 mmHg 94%
    23:00 -7°C° 0 mm 3 mps 754 mmHg 94%

    23 November, Friday

    Time Temperature Precipitation Wind Pressure Humidity
    00:00 -8°C° 0 mm 3 mps 754 mmHg 94%
    01:00 -8°C° 0 mm 3 mps 754 mmHg 94%
    02:00 -8°C° 0 mm 3 mps 754 mmHg 94%
    03:00 -8°C° 0 mm 3 mps 754 mmHg 94%
    04:00 -8°C° 0 mm 3 mps 754 mmHg 94%
    05:00 -8°C° 0 mm 3 mps 754 mmHg 94%
    06:00 -8°C° 0 mm 3 mps 754 mmHg 95%
    07:00 -8°C° 0 mm 3 mps 755 mmHg 95%
    08:00 -7°C° 0 mm 2 mps 755 mmHg 95%
    09:00 -6°C° 0 mm 2 mps 755 mmHg 94%
    10:00 -5°C° 0 mm 2 mps 756 mmHg 93%
    11:00 -4°C° 0 mm 2 mps 756 mmHg 92%
    12:00 -4°C° 0 mm 2 mps 756 mmHg 91%
    13:00 -3°C° 0 mm 2 mps 756 mmHg 90%
    14:00 -3°C° 0 mm 2 mps 756 mmHg 89%
    15:00 -4°C° 0 mm 2 mps 756 mmHg 90%
    16:00 -2°C° 0 mm 1 mps 756 mmHg 91%
    17:00 -3°C° 0 mm 1 mps 756 mmHg 92%
    18:00 -4°C° 0 mm 1 mps 755 mmHg 93%
    19:00 -4°C° 0 mm 1 mps 755 mmHg 93%
    20:00 -6°C° 0 mm 0 mps 755 mmHg 93%
    21:00 -6°C° 0 mm 0 mps 755 mmHg 93%
    22:00 -6°C° 0 mm 0 mps 755 mmHg 93%
    23:00 -6°C° 0 mm 0 mps 755 mmHg 93%
    Show more